COSMOS 2251 DEB, 35975

Orbit data source: Space-Track

COSMOS 2251 DEB, 35975 is space debris in LEO originally from a launch on Wed, 16 Jun 1993 UTC launched from the Plesetsk Missile And Space Complex (PKMTR). The debris from Iridium 33, an American commercial communications satellite, has been tracked extensively since its accidental collision with the defunct Russian satellite Cosmos 2251 in 2009. This event, occurring at high speed in low Earth orbit (LEO), generated thousands of pieces of space debris, significantly increasing the risk of further collisions. The Iridium 33 debris cloud has impacted space traffic management and orbital debris mitigation strategies, making it a subject of ongoing study in space situational awareness.

Loading next visibility...
Identifier
35975, 1993-036AVR
Orbit
LEO
Country
Flag of CISCIS
Related business
Manufacturer
Unknown
Mission
Spacecraft
Bus & Motor
Unknown
Mass
Unknown
Launch date (UTC)
1993-06-16 (33 years ago)
Launch vehicle
Unknown
Launch site
Plesetsk Missile And Space Complex (PKMTR)
Object type
Payload
Rocket body
Debris
Shape & HBR
Unknown shape, 0.1 m
Radar Cross Section
Small (<0.1 m²)

Expand to show TLE details & history
Last TLE update: 2 months ago

TLE from 2 months ago
0 COSMOS 2251 DEB
1 35975U 93036AVR 26041.83459520  .00003348  00000-0  12918-2 0  9990
2 35975  74.0486 221.0040 0111297 286.6553  72.2400 14.27247633649592
Epoch: 2026-02-10T20:01Z
TLE epoch observation values (Epoch: 2026-02-10T20:01:49.025Z)
Latitude
-0.00003°
Longitude
139.64035°
Altitude
779.982 km
Speed
7.476 km/s
True Right ascension
14h 44m 00s
True Declination
0° 00' 00"
Sunlit
Object was in daylight at epoch
Visualization orbit readout
Latitude
Unknown
Longitude
Unknown
Altitude
Unknown
Speed
Unknown
Apparent Right ascension
Unknown
Apparent Declination
Unknown
Sunlit
N/A
Visualization observer readout
Local Sidereal Time
02:26:26
Azimuth
Unknown
Elevation
Unknown
Doppler factor
Unknown
Orbital elements
Apogee altitude
878.453 km
Perigee altitude
718.703 km
Semi-major axis
7,176.715 km
Eccentricity
0.01113
Inclination
74.0486°
RAAN
221.004°
Arg. of periapsis
286.6553°
True anomaly
73.45967°
Mean anomaly
72.24°
Eccentric anomaly
72.84933°
Mean motion
3.56989 °/min
Orbital period
100.84 mins
BSTAR
0.0012918

Documentation

Showing up to 5 results
|